Anaktuvuk Pass, AK

6:37 AM AKST on December 11, 2017 (GMT -0900)
Anaktuvuk Pass

Weather History for PAKP - January, 2013

Change the Weather History Date:

Tuesday, January 1, 2013

  Actual Average Record
Temperature  
Mean Temperature 0 °F -  
Max Temperature 8 °F -5 °F 30 °F (2017)
Min Temperature -9 °F -16 °F -32 °F (2011)
Degree Days  
Heating Degree Days 66    
Moisture  
Dew Point -10 °F    
Average Humidity 61    
Maximum Humidity 85    
Minimum Humidity 25    
Precipitation  
Precipitation 0.00 in - - ()
Sea Level Pressure  
Sea Level Pressure 29.46 in    
Wind  
Wind Speed 5 mph (North)    
Max Wind Speed 12 mph    
Max Gust Speed -    
Visibility 10 miles    
Events      
Averages and records for this station are not official NWS values.
T = Trace of Precipitation, MM = Missing Value Source: NWS Daily Summary

Daily Weather History Graph

Daily Weather History Graph

Search for Another Location

Airport or City:

Trip Planner

Search our weather history database for the weather conditions in past years. The results will help you decide how hot, cold, wet, or windy it might be!

Date:

Astronomy

Jan. 01, 2013 Rise Set
Actual Time 12:38 PM AKST 1:43 PM AKST
Civil Twilight 10:24 AM AKST 3:57 PM AKST
Nautical Twilight 8:57 AM AKST 5:24 PM AKST
Astronomical Twilight 7:46 AM AKST 6:35 PM AKST
Moon 10:05 PM AKST (1/1) 11:28 AM AKST (1/1)
Length of Visible Light 5h 32m
Length of Day
1h 04m
Waning Gibbous, 82% of the Moon is Illuminated
Jan 1
Waning Gibbous
Jan 4
Last Quarter
Jan 11
New
Jan 18
First Quarter
Jan 26
Full

Hourly Weather History & Observations

Time (AKST) Temp. Windchill Dew Point Humidity Pressure Visibility Wind Dir Wind Speed Gust Speed Precip Events Conditions
12:16 AM -2.2 °F - -14.8 °F 55% 29.70 in 5.0 mi Calm Calm - N/A   Clear
12:36 AM -4.0 °F -12.4 °F -16.6 °F 55% 29.70 in 9.0 mi SW 3.5 mph - N/A   Clear
12:56 AM -5.8 °F -21.2 °F -11.2 °F 77% 29.71 in 10.0 mi SSW 8.1 mph - N/A   Clear
1:16 AM -2.2 °F - -11.2 °F 66% 29.71 in 10.0 mi Calm Calm - N/A   Clear
1:36 AM -2.2 °F -12.5 °F -7.6 °F 78% 29.71 in 10.0 mi South 4.6 mph - N/A   Clear
1:56 AM -0.4 °F -12.0 °F -9.4 °F 66% 29.71 in 10.0 mi South 5.8 mph - N/A   Clear
2:16 AM -0.4 °F - -9.4 °F 66% 29.71 in 4.0 mi Calm Calm - N/A   Clear
2:36 AM 3.2 °F -6.2 °F - N/A% 29.70 in 5.0 mi SSW 4.6 mph - N/A   Scattered Clouds
3:16 AM 3.2 °F - -18.4 °F 36% 29.69 in 10.0 mi Calm Calm - N/A   Clear
3:36 AM 1.4 °F -9.9 °F -16.6 °F 43% 29.68 in 6.0 mi SSW 5.8 mph - N/A   Clear
3:56 AM 1.4 °F -8.3 °F -16.6 °F 43% 29.68 in 10.0 mi WSW 4.6 mph - N/A   Clear
4:16 AM 1.4 °F -8.3 °F -16.6 °F 43% 29.68 in 10.0 mi SW 4.6 mph - N/A   Clear
4:36 AM 1.4 °F - -13.0 °F 51% 29.67 in 10.0 mi Calm Calm - N/A   Clear
4:56 AM -0.4 °F -13.4 °F -13.0 °F 55% 29.66 in 10.0 mi South 6.9 mph - N/A   Clear
5:16 AM 1.4 °F - -9.4 °F 61% 29.66 in 10.0 mi Calm Calm - N/A   Clear
5:36 AM 1.4 °F -6.2 °F -7.6 °F 66% 29.65 in 9.0 mi SSW 3.5 mph - N/A   Clear
5:56 AM 1.4 °F - -7.6 °F 66% 29.63 in 10.0 mi Calm Calm - N/A   Clear
6:16 AM 3.2 °F - -5.8 °F 66% 29.63 in 10.0 mi Calm Calm - N/A   Clear
6:36 AM 3.2 °F - -5.8 °F 66% 29.63 in 10.0 mi Calm Calm - N/A   Clear
6:56 AM 1.4 °F -11.3 °F -5.8 °F 72% 29.63 in 10.0 mi NNE 6.9 mph - N/A   Clear
7:16 AM -0.4 °F -12.0 °F -13.0 °F 55% 29.61 in 10.0 mi North 5.8 mph - N/A   Clear
7:36 AM -0.4 °F -15.7 °F -7.6 °F 72% 29.60 in 10.0 mi North 9.2 mph - N/A   Clear
7:56 AM 1.4 °F -9.9 °F -7.6 °F 66% 29.60 in 10.0 mi North 5.8 mph - N/A   Clear
8:16 AM 1.4 °F -11.3 °F -4.0 °F 78% 29.58 in 10.0 mi North 6.9 mph - N/A   Scattered Clouds
8:36 AM -0.4 °F -15.7 °F -11.2 °F 60% 29.57 in 10.0 mi North 9.2 mph - N/A   Partly Cloudy
8:56 AM -0.4 °F -12.0 °F -7.6 °F 72% 29.56 in 10.0 mi NNE 5.8 mph - N/A   Clear
9:16 AM 1.4 °F -9.9 °F -7.6 °F 66% 29.55 in 10.0 mi North 5.8 mph - N/A   Clear
9:36 AM 1.4 °F -12.5 °F -4.0 °F 78% 29.54 in 10.0 mi NNW 8.1 mph - N/A   Clear
9:56 AM 1.4 °F -11.3 °F - N/A% 29.53 in 10.0 mi NNE 6.9 mph - N/A   Clear
10:16 AM 3.2 °F -9.1 °F -25.6 °F 25% 29.53 in 10.0 mi NNW 6.9 mph - N/A   Clear
10:36 AM 3.2 °F -10.3 °F -18.4 °F 36% 29.51 in 10.0 mi North 8.1 mph - N/A   Clear
10:56 AM 1.4 °F -11.3 °F -16.6 °F 43% 29.50 in 10.0 mi North 6.9 mph - N/A   Clear
11:16 AM 5.0 °F -6.9 °F -13.0 °F 43% 29.49 in 10.0 mi North 6.9 mph - N/A   Clear
11:36 AM 3.2 °F -7.8 °F -11.2 °F 51% 29.47 in 10.0 mi North 5.8 mph - N/A   Scattered Clouds
11:56 AM 3.2 °F -10.3 °F -9.4 °F 56% 29.46 in 10.0 mi North 8.1 mph - N/A   Mostly Cloudy
12:16 PM 3.2 °F -10.3 °F -9.4 °F 56% 29.46 in 10.0 mi North 8.1 mph - N/A   Mostly Cloudy
12:36 PM 3.2 °F -6.2 °F -7.6 °F 61% 29.46 in 10.0 mi North 4.6 mph - N/A   Overcast
12:56 PM 6.8 °F -4.8 °F -4.0 °F 61% 29.44 in 10.0 mi North 6.9 mph - N/A   Overcast
1:16 PM 8.6 °F -1.3 °F -9.4 °F 44% 29.43 in 10.0 mi North 5.8 mph - N/A   Overcast
1:36 PM 5.0 °F -5.6 °F -20.2 °F 30% 29.41 in 10.0 mi NNE 5.8 mph - N/A   Overcast
1:56 PM 6.8 °F -8.6 °F -14.8 °F 37% 29.40 in 10.0 mi NNE 11.5 mph - N/A   Overcast
2:16 PM 6.8 °F -8.6 °F -11.2 °F 44% 29.39 in 10.0 mi NE 11.5 mph - N/A   Overcast
2:36 PM 6.8 °F -6.9 °F -7.6 °F 52% 29.39 in 10.0 mi North 9.2 mph - N/A   Overcast
2:56 PM 5.0 °F -8.1 °F -9.4 °F 52% 29.38 in 10.0 mi NNE 8.1 mph - N/A   Overcast
3:16 PM 5.0 °F -6.9 °F -5.8 °F 61% 29.37 in 10.0 mi North 6.9 mph - N/A   Overcast
3:36 PM 5.0 °F -6.9 °F -4.0 °F 66% 29.35 in 10.0 mi North 6.9 mph - N/A   Overcast
3:56 PM 5.0 °F -8.1 °F -4.0 °F 66% 29.33 in 10.0 mi North 8.1 mph - N/A   Overcast
4:16 PM 6.8 °F -2.0 °F -2.2 °F 67% 29.33 in 10.0 mi North 4.6 mph - N/A   Overcast
4:36 PM 5.0 °F -6.9 °F -0.4 °F 78% 29.31 in 10.0 mi North 6.9 mph - N/A   Overcast
4:56 PM 3.2 °F -4.2 °F -4.0 °F 72% 29.31 in 10.0 mi North 3.5 mph - N/A   Mostly Cloudy
5:16 PM 3.2 °F -7.8 °F -5.8 °F 66% 29.30 in 10.0 mi NNE 5.8 mph - N/A   Scattered Clouds
5:36 PM 3.2 °F -9.1 °F -0.4 °F 85% 29.29 in 10.0 mi North 6.9 mph - N/A   Scattered Clouds
5:56 PM 1.4 °F -9.9 °F -11.2 °F 56% 29.27 in 10.0 mi North 5.8 mph - N/A   Mostly Cloudy
6:16 PM 1.4 °F -8.3 °F -2.2 °F 85% 29.27 in 10.0 mi NNW 4.6 mph - N/A   Overcast
6:36 PM -0.4 °F -12.0 °F -9.4 °F 66% 29.26 in 10.0 mi North 5.8 mph - N/A   Mostly Cloudy
6:56 PM -0.4 °F -12.0 °F -7.6 °F 72% 29.24 in 10.0 mi North 5.8 mph - N/A   Mostly Cloudy
7:16 PM -0.4 °F -12.0 °F -9.4 °F 66% 29.23 in 10.0 mi North 5.8 mph - N/A   Mostly Cloudy
7:36 PM -0.4 °F -10.4 °F -7.6 °F 72% 29.23 in 10.0 mi North 4.6 mph - N/A   Mostly Cloudy
7:56 PM -0.4 °F -12.0 °F -7.6 °F 72% 29.22 in 10.0 mi North 5.8 mph - N/A   Mostly Cloudy
8:16 PM -0.4 °F -13.4 °F -7.6 °F 72% 29.22 in 10.0 mi NNE 6.9 mph - N/A   Overcast
8:36 PM -0.4 °F -15.7 °F -11.2 °F 60% 29.21 in 10.0 mi NNE 9.2 mph - N/A   Overcast
8:56 PM -2.2 °F -18.0 °F -9.4 °F 71% 29.21 in 10.0 mi NNE 9.2 mph - N/A   Mostly Cloudy
9:36 PM -7.6 °F -23.4 °F -16.6 °F 65% 29.21 in 10.0 mi NNE 8.1 mph - N/A   Overcast
9:56 PM -7.6 °F -25.7 °F -16.6 °F 65% 29.20 in 10.0 mi NNE 10.4 mph - N/A   Overcast
10:16 PM -7.6 °F -23.4 °F -18.4 °F 59% 29.20 in 10.0 mi NNE 8.1 mph - N/A   Overcast
10:36 PM -9.4 °F -25.6 °F -16.6 °F 71% 29.20 in 10.0 mi NNE 8.1 mph - N/A   Mostly Cloudy
10:56 PM -9.4 °F -20.9 °F -18.4 °F 65% 29.19 in 10.0 mi NNE 4.6 mph - N/A   Mostly Cloudy
11:36 PM -9.4 °F -25.6 °F -18.4 °F 65% 29.19 in 10.0 mi NNE 8.1 mph - N/A   Overcast
11:56 PM -9.4 °F -25.6 °F -18.4 °F 65% 29.19 in 10.0 mi NNE 8.1 mph - N/A   Overcast